Regional Weather Roundup
Issued by NWS

Home | Current Version | Previous Version | Text Only | Print | Product List | Glossary Off
Versions: 1 2 3 4 5 6 7 8 9 10 11 12 13 14 15 16 17 18 19 20 21 22 23 24 25 26 27 28 29 30 31 32 33 34 35 36 37 38 39 40 41 42 43 44 45 46 47 48 49 50

000
ASUS43 KOAX 021702
RWRNE

WEATHER ROUNDUP FOR NEBRASKA
NATIONAL WEATHER SERVICE OMAHA NE
1200 PM CDT SUN AUG 02 2015

NOTES: SATELLITE DATA IS BEING USED TO AUGMENT CLOUD COVER ABOVE
       12000 FEET.
       "FAIR" INDICATES FEW OR NO CLOUDS BELOW 12,000 FEET WITH NO
       SIGNIFICANT WEATHER AND/OR OBSTRUCTIONS TO VISIBILITY.

  * THESE STATIONS DO NOT REPORT WEATHER SUCH AS RAIN...SNOW OR FOG.

NEZ001>004-019>022-054>056-021800-
NEBRASKA PANHANDLE

CITY           SKY/WX    TMP DP  RH WIND       PRES   REMARKS
SCOTTSBLUFF    SUNNY     82  61  48 VRB3      30.02S
ALLIANCE       SUNNY     87  60  40 NE6       30.01S
CHADRON        SUNNY     87  52  29 N10       29.98S
KIMBALL        SUNNY     88  49  26 SE3       30.06S
SIDNEY         SUNNY     90  56  31 SE9       30.04S
$$

NEZ057>060-069>072-079>082-021800-
SOUTHWEST NEBRASKA

CITY           SKY/WX    TMP DP  RH WIND       PRES   REMARKS
NORTH PLATTE   SUNNY     89  62  40 S6        29.94S
IMPERIAL       MOSUNNY   86  66  51 VRB7      29.99R
LEXINGTON      SUNNY     89  71  54 S7        29.93S HX  94
MCCOOK         SUNNY     91  68  46 CALM      29.94S HX  95
OGALLALA       SUNNY     82  66  56 S6        29.98S
$$

NEZ005>010-023>029-035>040-094-021800-
NORTH CENTRAL NEBRASKA

CITY           SKY/WX    TMP DP  RH WIND       PRES   REMARKS
AINSWORTH      SUNNY     85  62  46 N9        29.92S
BROKEN BOW     SUNNY     90  65  43 W6        29.92F HX  92
O`NEILL        SUNNY     85  66  53 NW10      29.89R
ORD            SUNNY     89  68  49 VRB5      29.88S HX  93
$$

NEZ041-046>049-061>064-073>077-083>087-021800-
SOUTH CENTRAL NEBRASKA

CITY           SKY/WX    TMP DP  RH WIND       PRES   REMARKS
GRAND ISLAND   SUNNY     89  72  56 W12       29.90S HX  96
AURORA         SUNNY     86  74  68 W13       29.89S HX  94
HASTINGS       SUNNY     86  73  65 W12       29.91F HX  93
HEBRON         SUNNY     88  69  53 SW9       29.90S HX  92
HOLDREGE       SUNNY     87  69  53 W6        29.94S HX  91
KEARNEY *      SUNNY     88  70  55 SW9       29.92S HX  92
YORK           SUNNY     86  75  70 W8        29.90R HX  95
$$

NEZ011>018-030>034-042>045-021800-
NORTHEAST NEBRASKA

CITY           SKY/WX    TMP DP  RH WIND       PRES   REMARKS
NORFOLK        SUNNY     88  67  49 W7        29.85R HX  91
ALBION         SUNNY     85  70  60 SW7       29.87S
BLAIR          SUNNY     85  72  65 SW13      29.84F HX  91
COLUMBUS *     SUNNY     88  72  58 W8        29.85S HX  94
FREMONT        SUNNY     88  73  60 SW8       29.85S HX  95
TEKAMAH        SUNNY     86  74  67 SW10      29.82S HX  94
WAYNE          SUNNY     86  68  55 SW9       29.84S
$$

NEZ050>053-065>068-078-088>093-021800-
SOUTHEAST NEBRASKA

CITY           SKY/WX    TMP DP  RH WIND       PRES   REMARKS
LINCOLN        SUNNY     90  72  55 SW12      29.87S HX  97
OMAHA EPPLEY   MOSUNNY   92  72  51 SW14      29.83F HX  99
BEATRICE       SUNNY     87  73  62 SW12G20   29.88S HX  95
FALLS CITY     SUNNY     86  74  67 SW14      29.88F HX  94
NEBRASKA CITY  SUNNY     85  71  62 SW12G21   29.87S HX  90
PLATTSMOUTH    SUNNY     87  74  66 SW14      29.86S HX  95
$$

NEZ044-045-051>053-067-021800-
OMAHA AREA

CITY           SKY/WX    TMP DP  RH WIND       PRES   REMARKS
OMAHA EPPLEY   MOSUNNY   92  72  51 SW14      29.83F HX  99
BLAIR          SUNNY     85  72  65 SW13      29.84F HX  91
FREMONT        SUNNY     88  73  60 SW8       29.85S HX  95
MILLARD        SUNNY     88  73  61 W12       29.83F HX  96
PLATTSMOUTH    SUNNY     87  74  66 SW14      29.86S HX  95
WAHOO          FAIR      87  72  61 SW13G22   29.85S HX  94
$$


USA.gov is the U.S. government's official web portal to all federal, state and local government web resources and services.